Weather in Kordelivka

Ukraine / Vinnytsia Region     49°31′18″N   28°32′47″E
temp.,
°C
wind,
m/s
gust,
m/s
humid.,
%
clouds,
%
prec.,
mm/h
press.,
hPa
HPBL,
m
18 january, tue
tue1823:00−3wnw91894100 0.1 10041263
02:00−3nw111891100 0.8 10061184
05:00−4nnw12216960 0.1 10111432
08:00−4nw111871100 0.1 10141375
11:00−2nw10177889 0.2 10161804
14:00−2nnw91674100 0.6 10171779
17:00−4nnw81573100 0.2 10201128
20:00−4nnw9157497 0.3 10231160
19 january, wed
wed1923:00−5nnw8147977 0.0 1026862
02:00−6nnw613835 0.0 1027603
05:00−7nnw5128921 0.0 1028438
08:00−6nw41089100 0.0 1028351
11:00−4nw487897 0.0 1028419
14:00−2wnw468579 0.0 1025551
17:00−2wsw25878 0.0 1024152
20:00−5sw37955 0.0 1023121
20 january, thu
thu2023:00
02:00−5sw3892100 0.0 1019156
05:00−5ssw3888100 0.0 1016165
08:00
11:00−2sw477063 0.0 1012255
14:000sw3771100 0.0 1009423
17:00−2ssw3981100 0.0 1008269
20:00−2sw41197100 0.8 1007438
21 january, fri
fri2123:00−2w5991100 0.8 1007541
02:00−3w51186100 0.8 1008531
05:00−4w61289100 0.0 1008533
08:00−5wsw7149194 0.1 1009683
11:00−3w81185100 0.2 10101033
14:00−2w9137999 0.3 10101058
17:00−4w81583100 0.0 1011793
20:00−4w81485100 0.1 1012936
22 january, sat
sat2223:00−5w71485100 0.0 1012715
02:00−5w71488100 0.0 1012602
05:00−5w61390100 0.0 1012632
08:00−5wsw61392100 0.1 1013698
11:00−4w61186100 0.1 1014773
14:00−3w5783100 0.2 1014806
17:00−5wnw489194 0.2 1016247
20:00−5wnw379590 0.4 1018364